This demonstration page uses our WeatherBlox Daily Observations layout. Learn more.

Left ArrowRight Arrow

Hourly Observations for May 5, 2020

Temp ( °F °C ) Dew Point ( °F °C ) Humidity (%) Winds ( mph kmh ) Pressure ( in mb ) Visibility ( mi km ) Precip ( " mm )
12:53 am 00:53 Clear 72 22.2 24 -4.4 17 17 NNW 3 6 29.69 1005 10 16 0.00 0.00
1:53 am 01:53 Clear 67 19.4 25 -3.9 20 20 N 8 13 29.69 1006 10 16 0.00 0.00
2:53 am 02:53 Clear 67 19.4 25 -3.9 20 20 ENE 8 13 29.73 1007 10 16 0.00 0.00
3:53 am 03:53 Clear 74 23.3 52 11.1 46 46 ENE 25 41 29.73 1007 10 16 0.00 0.00
4:53 am 04:53 Clear 71 21.7 55 12.8 57 57 ENE 33 54 29.78 1008 9 14 0.00 0.00
5:53 am 05:53 Clear 69 20.6 51 10.6 53 53 NE 24 39 29.86 1011 10 16 0.00 0.00
6:53 am 06:53 Clear 66 18.9 50 10 56 56 NE 31 50 29.91 1013 10 16 0.00 0.00
8:53 am 08:53 Mostly Cloudy 70 21.1 40 4.4 34 34 ENE 20 31 30.03 1017 10 16 0.00 0.00
9:53 am 09:53 Cloudy 71 21.7 36 2.2 28 28 NE 23 37 30.07 1018 10 16 0.00 0.00
10:53 am 10:53 Cloudy 74 23.3 34 1.1 23 23 NE 20 31 30.09 1019 10 16 0.00 0.00
11:53 am 11:53 Mostly Cloudy 76 24.4 34 1.1 22 22 NE 20 31 30.09 1019 10 16 0.00 0.00
12:53 pm 12:53 Partly Cloudy 79 26.1 36 2.2 21 21 E 24 39 30.08 1019 10 16 0.00 0.00
1:53 pm 13:53 Sunny 80 26.7 36 2.2 20 20 E 15 24 30.06 1018 10 16 0.00 0.00
2:53 pm 14:53 Sunny 82 27.8 37 2.8 20 20 ESE 15 24 30.04 1017 10 16 0.00 0.00
3:53 pm 15:53 Sunny 83 28.3 38 3.3 20 20 E 18 30 30.00 1016 10 16 0.00 0.00
4:53 pm 16:53 Sunny 83 28.3 38 3.3 20 20 NE 9 15 29.98 1015 10 16 0.00 0.00
5:53 pm 17:53 Sunny 83 28.3 38 3.3 20 20 E 13 20 29.96 1015 10 16 0.00 0.00
6:53 pm 18:53 Sunny 82 27.8 39 3.9 22 22 ESE 12 19 29.96 1015 10 16 0.00 0.00
7:53 pm 19:53 Sunny 80 26.7 39 3.9 23 23 ESE 12 19 29.97 1015 10 16 0.00 0.00
8:53 pm 20:53 Clear 76 24.4 39 3.9 26 26 E 8 13 29.98 1015 10 16 0.00 0.00
9:53 pm 21:53 Clear 73 22.8 39 3.9 29 29 E 9 15 30.02 1017 10 16 0.00 0.00
10:53 pm 22:53 Clear 70 21.1 39 3.9 32 32 E 10 17 30.05 1018 10 16 0.00 0.00
11:53 pm 23:53 Clear 68 20 39 3.9 35 35 E 13 20 30.05 1018 10 16 0.00 0.00

Powered by AerisWeather